Weather in Romodan

Ukraine / Poltava Region     49°59′42″N   33°19′19″E
temp.,
°C
wind,
m/s
gust,
m/s
humid.,
%
clouds,
%
prec.,
mm/h
press.,
hPa
HPBL,
m
13 may, thu
thu1300:00+5ne339717 0.2 101257
03:00+5e119571 0.2 101213
06:00+6se019541 0.0 101122
09:00+10s347982 0.0 1012620
12:00+13s4464100 0.1 10121366
15:00+16s465576 0.1 10121756
18:00+16s366175 0.0 10111026
21:00+12se467595 0.0 101298
14 may, fri
fri1400:00+11se4869100 0.0 1012129
03:00+11ese476995 0.0 1011138
06:00+10e4880100 0.0 1010170
09:00+16ese587828 0.3 1009394
12:00+21sse5766100 0.2 10081434
15:00+22s6954100 0.3 10071851
18:00+21ssw59635 0.1 1007917
21:00+15s46833 0.6 100878
15 may, sat
sat1500:00+13ssw339018 0.0 100843
03:00+11ssw3696100 0.0 1009136
06:00+10sw379516 0.0 1010176
09:00+15sw467854 0.0 1011586
12:00+19sw686218 0.3 10121564
15:00+20sw695289 0.3 10122010
18:00+19w466542 0.1 1012959
21:00+16w2272100 0.1 101320
16 may, sun
sun1600:00+15nw117773 0.0 101313
03:00+12n228878 0.0 101413
06:00+12nne238626 0.0 101444
09:00+17ne23690 0.0 1014391
12:00+21ene335994 0.0 10141035
15:00+23ene335098 0.0 10131895
18:00+23ene356088 0.0 1011398
21:00+18ne477667 0.0 1011109
17 may, mon
mon1700:00+15ne488220 0.0 1011136
03:00+14ne41084100 0.0 1010176
06:00+15ne51183100 0.1 1008259
09:00+19ene577596 0.1 1007425
12:00+24e6858100 0.0 1005823
15:00+25se6750100 0.0 10041388
18:00+24se47615 0.0 1004492
21:00+18wsw3589100 0.9 1005135